�������l�o���
Date,Time,MP-1(��Sv/h),MP-2(��Sv/h),MP-3(��Sv/h),MP-4(��Sv/h),MP-5(��Sv/h),MP-6(��Sv/h),MP-7(��Sv/h),MP-8(��Sv/h),����,����(m/s),���J
2020/10/17,00:00,0.661,0.945,0.597,1.154,0.826,0.382,0.667,0.630,�k��,5.0,��
2020/10/17,00:10,0.661,0.945,0.597,1.153,0.828,0.382,0.663,0.632,�k��,4.6,��
2020/10/17,00:20,0.662,0.946,0.597,1.155,0.826,0.382,0.666,0.631,�k��,5.1,��
2020/10/17,00:30,0.662,0.946,0.596,1.156,0.827,0.383,0.666,0.630,�k��,5.0,��
2020/10/17,00:40,0.660,0.946,0.596,1.155,0.824,0.384,0.665,0.631,�k��,5.0,��
2020/10/17,00:50,0.660,0.947,0.596,1.153,0.826,0.383,0.664,0.630,�k��,5.0,��
2020/10/17,01:00,0.661,0.946,0.596,1.154,0.826,0.384,0.666,0.630,�k��,4.9,��
2020/10/17,01:10,0.661,0.945,0.595,1.154,0.826,0.382,0.666,0.631,�k�k��,4.5,��
2020/10/17,01:20,0.661,0.945,0.596,1.154,0.826,0.381,0.667,0.630,�k��,4.2,��
2020/10/17,01:30,0.661,0.946,0.596,1.154,0.826,0.384,0.666,0.630,�k��,4.3,��
2020/10/17,01:40,0.660,0.944,0.596,1.152,0.826,0.383,0.666,0.629,�k��,4.1,��
2020/10/17,01:50,0.661,0.947,0.595,1.154,0.825,0.384,0.667,0.631,�k��,4.3,��
2020/10/17,02:00,0.663,0.946,0.596,1.157,0.825,0.383,0.667,0.631,�k��,4.4,��
2020/10/17,02:10,0.661,0.945,0.596,1.155,0.827,0.384,0.666,0.630,���k��,4.3,��
2020/10/17,02:20,0.660,0.945,0.597,1.154,0.826,0.384,0.666,0.631,���k��,4.5,��
2020/10/17,02:30,0.661,0.946,0.597,1.153,0.825,0.383,0.665,0.630,�k��,4.3,��
2020/10/17,02:40,0.661,0.945,0.596,1.156,0.826,0.382,0.665,0.631,�k��,4.1,��
2020/10/17,02:50,0.662,0.945,0.597,1.154,0.826,0.383,0.665,0.630,�k��,4.1,��
2020/10/17,03:00,0.661,0.945,0.598,1.155,0.827,0.384,0.665,0.630,�k��,4.8,��
2020/10/17,03:10,0.663,0.947,0.597,1.155,0.828,0.384,0.665,0.630,�k��,5.0,��
2020/10/17,03:20,0.659,0.946,0.596,1.153,0.823,0.383,0.665,0.630,�k��,4.7,��
2020/10/17,03:30,0.661,0.945,0.594,1.156,0.825,0.383,0.664,0.630,�k�k��,5.6,��
2020/10/17,03:40,0.661,0.947,0.595,1.155,0.825,0.384,0.666,0.629,�k��,6.1,��
2020/10/17,03:50,0.662,0.946,0.597,1.152,0.827,0.384,0.665,0.629,�k�k��,6.1,��
2020/10/17,04:00,0.662,0.944,0.596,1.155,0.824,0.384,0.665,0.631,�k��,4.1,��
2020/10/17,04:10,0.662,0.946,0.597,1.154,0.825,0.382,0.664,0.630,�k��,3.8,��
2020/10/17,04:20,0.663,0.947,0.598,1.155,0.826,0.383,0.665,0.629,�k��,4.1,��
2020/10/17,04:30,0.661,0.947,0.595,1.153,0.827,0.383,0.666,0.630,�k��,4.0,��
2020/10/17,04:40,0.662,0.945,0.597,1.154,0.827,0.382,0.664,0.630,�k��,4.4,��
2020/10/17,04:50,0.661,0.943,0.598,1.155,0.825,0.384,0.667,0.628,�k��,3.9,��
2020/10/17,05:00,0.661,0.947,0.596,1.154,0.827,0.385,0.665,0.629,�k��,4.2,��
2020/10/17,05:10,0.660,0.947,0.596,1.155,0.826,0.384,0.666,0.630,���k��,3.7,��
2020/10/17,05:20,0.661,0.945,0.597,1.156,0.826,0.383,0.666,0.630,���k��,4.0,��
2020/10/17,05:30,0.660,0.945,0.596,1.156,0.827,0.383,0.667,0.632,���k��,3.9,��
2020/10/17,05:40,0.661,0.944,0.598,1.154,0.829,0.382,0.668,0.630,�k��,3.3,��
2020/10/17,05:50,0.661,0.946,0.597,1.153,0.826,0.383,0.667,0.631,�k��,4.1,�L
2020/10/17,06:00,0.661,0.945,0.594,1.155,0.827,0.382,0.665,0.629,�k��,3.5,��
2020/10/17,06:10,0.662,0.947,0.598,1.158,0.826,0.382,0.666,0.630,�k��,4.8,��
2020/10/17,06:20,0.662,0.945,0.595,1.154,0.827,0.383,0.666,0.631,�k��,4.1,�L
2020/10/17,06:30,0.661,0.946,0.596,1.156,0.826,0.383,0.667,0.631,�k�k��,4.4,�L
2020/10/17,06:40,0.661,0.943,0.598,1.154,0.825,0.384,0.666,0.630,�k��,4.6,�L
2020/10/17,06:50,0.662,0.945,0.596,1.156,0.828,0.383,0.665,0.630,�k��,4.3,�L
2020/10/17,07:00,0.661,0.944,0.596,1.155,0.824,0.383,0.666,0.629,�k��,5.1,�L
2020/10/17,07:10,0.661,0.945,0.596,1.155,0.825,0.384,0.665,0.630,�k��,5.2,�L
2020/10/17,07:20,0.661,0.946,0.595,1.155,0.829,0.383,0.666,0.631,�k��,5.1,�L
2020/10/17,07:30,0.660,0.948,0.594,1.155,0.827,0.384,0.663,0.630,�k��,5.7,�L
2020/10/17,07:40,0.662,0.947,0.595,1.156,0.827,0.384,0.665,0.631,�k��,5.3,�L
2020/10/17,07:50,0.664,0.944,0.597,1.156,0.827,0.383,0.665,0.631,�k��,5.7,�L
2020/10/17,08:00,0.663,0.946,0.597,1.158,0.827,0.386,0.665,0.629,�k��,5.2,�L
2020/10/17,08:10,0.664,0.942,0.598,1.158,0.828,0.386,0.667,0.630,�k��,5.4,�L
2020/10/17,08:20,0.663,0.941,0.599,1.155,0.826,0.386,0.664,0.629,�k�k��,5.1,�L
2020/10/17,08:30,0.661,0.941,0.597,1.157,0.824,0.385,0.665,0.628,�k�k��,5.4,�L
2020/10/17,08:40,0.661,0.942,0.598,1.155,0.826,0.385,0.665,0.631,�k�k��,6.4,�L
2020/10/17,08:50,0.660,0.937,0.598,1.153,0.824,0.387,0.663,0.630,�k�k��,7.3,�L
2020/10/17,09:00,0.660,0.938,0.596,1.153,0.823,0.385,0.665,0.631,�k��,6.8,�L
2020/10/17,09:10,0.662,0.934,0.597,1.154,0.820,0.386,0.664,0.629,�k��,5.9,�L
2020/10/17,09:20,0.658,0.932,0.595,1.150,0.821,0.386,0.662,0.628,�k��,5.3,�L
2020/10/17,09:30,0.656,0.933,0.595,1.151,0.818,0.385,0.661,0.628,�k��,5.2,�L
2020/10/17,09:40,0.658,0.929,0.595,1.148,0.819,0.385,0.664,0.630,�k��,4.9,�L
2020/10/17,09:50,0.658,0.927,0.594,1.149,0.816,0.385,0.662,0.627,�k��,5.1,�L
2020/10/17,10:00,0.656,0.932,0.595,1.149,0.818,0.383,0.663,0.627,�k��,5.0,�L
2020/10/17,10:10,0.656,0.929,0.594,1.148,0.817,0.385,0.662,0.627,�k��,4.1,�L
2020/10/17,10:20,0.655,0.928,0.593,1.148,0.816,0.383,0.662,0.627,�k��,4.3,�L
2020/10/17,10:30,0.654,0.929,0.593,1.148,0.817,0.384,0.661,0.627,�k��,4.4,�L
2020/10/17,10:40,0.656,0.929,0.593,1.148,0.815,0.384,0.661,0.626,�k��,5.1,�L
2020/10/17,10:50,0.653,0.928,0.592,1.148,0.815,0.383,0.660,0.628,�k��,4.2,�L
2020/10/17,11:00,0.653,0.928,0.595,1.147,0.815,0.384,0.661,0.625,�k��,4.8,�L
2020/10/17,11:10,0.654,0.928,0.593,1.147,0.816,0.383,0.661,0.626,�k��,4.4,�L
2020/10/17,11:20,0.653,0.925,0.592,1.145,0.813,0.381,0.661,0.626,�k��,3.5,�L
2020/10/17,11:30,0.654,0.925,0.593,1.145,0.815,0.383,0.660,0.628,�k��,4.2,�L
2020/10/17,11:40,0.653,0.928,0.592,1.147,0.814,0.382,0.661,0.629,�k��,3.2,�L
2020/10/17,11:50,0.652,0.924,0.591,1.146,0.812,0.383,0.660,0.626,�k��,3.3,�L
2020/10/17,12:00,0.652,0.927,0.589,1.144,0.813,0.381,0.659,0.625,�k��,3.2,�L
2020/10/17,12:10,0.653,0.927,0.591,1.146,0.813,0.382,0.660,0.626,�k��,3.6,�L
2020/10/17,12:20,0.651,0.926,0.591,1.145,0.814,0.382,0.660,0.626,�k��,3.6,�L
2020/10/17,12:30,0.652,0.926,0.592,1.144,0.813,0.382,0.659,0.625,�k��,2.3,�L
2020/10/17,12:40,0.653,0.928,0.589,1.146,0.815,0.381,0.659,0.625,�k��,1.7,�L
2020/10/17,12:50,0.650,0.925,0.591,1.143,0.814,0.380,0.659,0.626,�k��,2.2,�L
2020/10/17,13:00,0.651,0.922,0.589,1.143,0.813,0.383,0.659,0.627,�k��,2.6,�L
2020/10/17,13:10,0.649,0.921,0.591,1.142,0.812,0.382,0.660,0.625,�k��,3.0,�L
2020/10/17,13:20,0.650,0.922,0.590,1.143,0.811,0.381,0.660,0.625,�k��,3.8,�L
2020/10/17,13:30,0.648,0.919,0.590,1.143,0.810,0.382,0.659,0.625,���k��,3.8,�L
2020/10/17,13:40,0.650,0.920,0.589,1.142,0.808,0.382,0.659,0.625,���k��,4.4,�L
2020/10/17,13:50,0.647,0.919,0.586,1.142,0.810,0.380,0.660,0.626,���k��,4.1,�L
2020/10/17,14:00,0.649,0.918,0.590,1.139,0.807,0.381,0.659,0.625,���k��,2.3,�L
2020/10/17,14:10,0.648,0.918,0.589,1.141,0.809,0.382,0.659,0.624,��,3.2,�L
2020/10/17,14:20,0.646,0.918,0.588,1.138,0.805,0.381,0.659,0.622,��,2.6,�L
2020/10/17,14:30,0.646,0.917,0.587,1.139,0.806,0.381,0.659,0.625,���k��,2.6,�L
2020/10/17,14:40,0.646,0.915,0.587,1.139,0.805,0.381,0.657,0.622,���k��,3.3,�L
2020/10/17,14:50,0.646,0.918,0.588,1.138,0.806,0.382,0.656,0.625,�k��,3.4,�L
2020/10/17,15:00,0.647,0.915,0.586,1.136,0.806,0.381,0.657,0.624,���k��,2.5,�L
2020/10/17,15:10,0.647,0.916,0.588,1.139,0.806,0.381,0.657,0.623,���k��,2.3,�L
2020/10/17,15:20,0.645,0.916,0.587,1.135,0.805,0.379,0.658,0.623,���k��,1.9,�L
2020/10/17,15:30,0.645,0.916,0.587,1.137,0.805,0.380,0.656,0.623,��,1.7,�L
2020/10/17,15:40,0.646,0.916,0.587,1.137,0.805,0.381,0.655,0.623,��,1.9,�L
2020/10/17,15:50,0.646,0.917,0.590,1.139,0.805,0.381,0.657,0.624,�쐼,1.5,�L
2020/10/17,16:00,0.647,0.919,0.588,1.139,0.805,0.381,0.656,0.624,�쐼,1.9,�L
2020/10/17,16:10,0.644,0.917,0.587,1.138,0.806,0.382,0.657,0.623,�쐼,2.3,�L
2020/10/17,16:20,0.648,0.919,0.586,1.136,0.806,0.381,0.656,0.623,�쐼,2.0,�L
2020/10/17,16:30,0.648,0.920,0.587,1.137,0.806,0.380,0.656,0.623,��쐼,2.5,�L
2020/10/17,16:40,0.646,0.918,0.587,1.137,0.805,0.381,0.655,0.624,��쐼,2.6,�L
2020/10/17,16:50,0.645,0.918,0.584,1.133,0.805,0.379,0.657,0.622,��쐼,3.1,�L
2020/10/17,17:00,0.644,0.917,0.585,1.135,0.805,0.380,0.655,0.622,��쐼,3.1,�L
2020/10/17,17:10,0.645,0.916,0.585,1.135,0.804,0.380,0.657,0.622,��쐼,3.1,�L
2020/10/17,17:20,0.643,0.916,0.587,1.132,0.806,0.380,0.655,0.621,��쐼,3.0,�L
2020/10/17,17:30,0.647,0.917,0.587,1.134,0.804,0.381,0.655,0.622,��쐼,2.8,�L
2020/10/17,17:40,0.645,0.916,0.586,1.134,0.803,0.381,0.656,0.623,��쐼,2.5,�L
2020/10/17,17:50,0.647,0.913,0.586,1.134,0.804,0.381,0.656,0.622,��쐼,2.8,�L
2020/10/17,18:00,0.644,0.914,0.586,1.132,0.802,0.381,0.655,0.622,��쐼,3.2,�L
2020/10/17,18:10,0.643,0.914,0.585,1.133,0.803,0.380,0.654,0.621,��쐼,3.4,�L
2020/10/17,18:20,0.643,0.913,0.584,1.130,0.803,0.379,0.654,0.621,-,CALM,�L
2020/10/17,18:30,0.642,0.913,0.585,1.131,0.802,0.379,0.654,0.620,��쐼,3.3,�L
2020/10/17,18:40,0.643,0.912,0.584,1.127,0.801,0.379,0.654,0.620,��쐼,3.5,�L
2020/10/17,18:50,0.642,0.911,0.583,1.127,0.801,0.379,0.653,0.620,��쐼,3.4,�L
2020/10/17,19:00,0.643,0.907,0.583,1.126,0.800,0.379,0.653,0.621,-,CALM,�L
2020/10/17,19:10,0.641,0.908,0.583,1.125,0.799,0.379,0.650,0.620,��쐼,3.7,�L
2020/10/17,19:20,0.641,0.908,0.585,1.124,0.799,0.378,0.652,0.620,��쐼,3.8,�L
2020/10/17,19:30,0.642,0.908,0.584,1.124,0.801,0.378,0.652,0.620,��쐼,3.8,�L
2020/10/17,19:40,0.641,0.908,0.583,1.124,0.798,0.378,0.653,0.621,-,CALM,�L
2020/10/17,19:50,0.640,0.906,0.581,1.122,0.799,0.379,0.651,0.620,�쐼,2.3,�L
2020/10/17,20:00,0.640,0.908,0.582,1.121,0.798,0.378,0.651,0.618,�쐼,2.2,�L
2020/10/17,20:10,0.639,0.906,0.581,1.120,0.799,0.377,0.650,0.618,�쐼,2.0,�L
2020/10/17,20:20,0.641,0.906,0.582,1.121,0.798,0.378,0.651,0.617,���쐼,1.9,�L
2020/10/17,20:30,0.640,0.907,0.582,1.120,0.798,0.377,0.652,0.620,��,2.2,�L
2020/10/17,20:40,0.640,0.906,0.581,1.118,0.796,0.378,0.651,0.619,��,2.6,�L
2020/10/17,20:50,0.637,0.907,0.582,1.116,0.795,0.378,0.650,0.620,��,2.0,�L
2020/10/17,21:00,0.639,0.904,0.581,1.119,0.794,0.378,0.649,0.618,���쐼,1.7,�L
2020/10/17,21:10,0.638,0.904,0.580,1.116,0.796,0.377,0.649,0.619,��,3.5,�L
2020/10/17,21:20,0.637,0.905,0.581,1.114,0.794,0.378,0.649,0.620,��,2.9,�L
2020/10/17,21:30,0.638,0.904,0.581,1.115,0.796,0.378,0.649,0.617,��,1.7,�L
2020/10/17,21:40,0.637,0.902,0.580,1.115,0.794,0.376,0.649,0.617,��,0.9,�L
2020/10/17,21:50,0.638,0.905,0.582,1.112,0.796,0.378,0.650,0.618,��쐼,1.1,�L
2020/10/17,22:00,0.639,0.904,0.580,1.114,0.795,0.375,0.649,0.618,���쐼,1.5,�L
2020/10/17,22:10,0.638,0.906,0.580,1.113,0.795,0.377,0.650,0.618,���쐼,1.1,�L
2020/10/17,22:20,0.638,0.903,0.580,1.113,0.796,0.377,0.650,0.619,�쐼,1.7,�L
2020/10/17,22:30,0.637,0.903,0.580,1.112,0.795,0.377,0.650,0.617,�쐼,1.9,�L
2020/10/17,22:40,0.638,0.904,0.578,1.113,0.795,0.375,0.650,0.619,�쐼,2.3,�L
2020/10/17,22:50,0.638,0.904,0.579,1.112,0.796,0.377,0.649,0.618,��쐼,2.8,�L
2020/10/17,23:00,0.638,0.906,0.579,1.112,0.796,0.375,0.651,0.618,��쐼,2.9,�L
2020/10/17,23:10,0.638,0.905,0.579,1.113,0.794,0.378,0.651,0.618,�쐼,2.6,�L
2020/10/17,23:20,0.638,0.907,0.580,1.111,0.795,0.377,0.652,0.619,��쐼,1.7,�L
2020/10/17,23:30,0.637,0.906,0.578,1.113,0.796,0.376,0.650,0.617,�쐼,1.7,�L
2020/10/17,23:40,0.638,0.906,0.579,1.114,0.797,0.376,0.649,0.618,��,1.2,�L
2020/10/17,23:50,0.637,0.906,0.578,1.112,0.796,0.377,0.651,0.618,�쐼,2.0,�L
